Weather History for Chino, CA

Change the Weather History Date:

Tuesday, February 19, 2013

  Actual Average Record
Temperature  
Mean Temperature 48 °F -  
Max Temperature 53 °F 63 °F 73 °F (2000)
Min Temperature 42 °F 41 °F 35 °F (2006)
Degree Days  
Heating Degree Days 18    
Moisture  
Dew Point 41 °F    
Average Humidity 78    
Maximum Humidity 93    
Minimum Humidity 59    
Precipitation  
Precipitation 0.29 in - - ()
Sea Level Pressure  
Sea Level Pressure 29.85 in    
Wind  
Wind Speed 6 mph (SW)    
Max Wind Speed 12 mph    
Max Gust Speed 21 mph    
Visibility 8 miles    
Events Rain , Thunderstorm    
Averages and records for this station are not official NWS values.
T = Trace of Precipitation, MM = Missing Value Source: NWS Daily Summary

Daily Weather History Graph

Daily Weather History Graph

Search for Another Location

Airport:

Trip Planner

Search our weather history database for the weather conditions in past years. The results will help you decide how hot, cold, wet, or windy it might be!

Date:

Astronomy

Feb. 19, 2013 Rise Set
Actual Time 6:30 AM PST 5:38 PM PST
Civil Twilight 6:05 AM PST 6:03 PM PST
Nautical Twilight 5:36 AM PST 6:33 PM PST
Astronomical Twilight 5:07 AM PST 7:02 PM PST
Moon 12:22 PM PST (2/19) 1:58 AM PST (2/19)
Length of Visible Light 11h 58m
Length of Day
11h 08m
Waxing Gibbous, 68% of the Moon is Illuminated
Feb 19
Waxing Gibbous
Feb 25
Full
Mar 4
Last Quarter
Mar 11
New
Mar 19
First Quarter

Hourly Weather History & Observations

Time (PST) Temp. Windchill Dew Point Humidity Pressure Visibility Wind Dir Wind Speed Gust Speed Precip Events Conditions
12:53 AM 50.0 °F - 43.0 °F 77% 29.99 in 10.0 mi WSW 8.1 mph - N/A   Overcast
1:53 AM 50.0 °F - 42.1 °F 74% 29.98 in 10.0 mi WSW 8.1 mph - N/A   Overcast
2:00 AM 50.0 °F - 42.8 °F 76% 29.98 in 10.0 mi WSW 5.8 mph - N/A   Overcast
2:48 AM 48.2 °F - 41.0 °F 76% 29.96 in 10.0 mi West 5.8 mph - N/A   Overcast
2:53 AM 48.0 °F - 41.0 °F 77% 29.96 in 10.0 mi West 6.9 mph - N/A   Overcast
3:53 AM 48.9 °F - 39.9 °F 71% 29.94 in 10.0 mi West 4.6 mph - N/A   Overcast
4:53 AM 48.9 °F - 39.0 °F 69% 29.95 in 10.0 mi SW 6.9 mph - N/A   Overcast
5:53 AM 50.0 °F - 37.9 °F 63% 29.96 in 10.0 mi SSW 3.5 mph - N/A   Overcast
6:26 AM 48.2 °F - 39.2 °F 71% 29.96 in 10.0 mi East 3.5 mph - N/A   Overcast
6:53 AM 48.0 °F - 41.0 °F 77% 29.96 in 10.0 mi Calm Calm - N/A   Overcast
7:53 AM 50.0 °F - 41.0 °F 71% 29.96 in 10.0 mi Calm Calm - N/A   Mostly Cloudy
8:53 AM 51.1 °F - 39.9 °F 66% 29.96 in 10.0 mi Calm Calm - N/A   Overcast
11:53 AM 53.1 °F - 39.0 °F 59% 29.91 in 10.0 mi SE 3.5 mph - N/A   Overcast
12:53 PM 51.1 °F - 43.0 °F 74% 29.89 in 6.0 mi South 5.8 mph - 0.00 in Rain Light Rain
1:53 PM 50.0 °F - 44.1 °F 80% 29.87 in 5.0 mi Variable 3.5 mph - 0.01 in Rain Light Rain
2:53 PM 50.0 °F - 45.0 °F 83% 29.85 in 5.0 mi SW 9.2 mph - 0.00 in Rain Light Rain
4:53 PM 50.0 °F - 39.0 °F 66% 29.80 in 10.0 mi WSW 9.2 mph - N/A   Overcast
5:53 PM 48.9 °F - 39.9 °F 71% 29.79 in 10.0 mi SW 8.1 mph - N/A   Overcast
6:53 PM 48.0 °F - 39.0 °F 71% 29.79 in 10.0 mi WSW 6.9 mph - N/A   Mostly Cloudy
7:53 PM 48.0 °F - 41.0 °F 77% 29.78 in 10.0 mi SSW 8.1 mph - 0.00 in   Overcast
8:24 PM 48.2 °F - 42.8 °F 82% 29.77 in 8.0 mi SW 10.4 mph - 0.00 in Rain Light Rain
8:53 PM 46.9 °F - 43.0 °F 86% 29.76 in 8.0 mi SSW 9.2 mph - 0.00 in Rain Light Rain
9:21 PM 46.4 °F 41.1 °F 42.8 °F 87% 29.76 in 10.0 mi SW 11.5 mph - 0.00 in   Overcast
9:29 PM 46.4 °F 42.4 °F 42.8 °F 87% 29.75 in 10.0 mi SSW 8.1 mph - 0.00 in   Overcast
9:39 PM 46.4 °F 42.9 °F 42.8 °F 87% 29.75 in 10.0 mi SSW 6.9 mph - 0.00 in Thunderstorm Overcast
9:53 PM 46.9 °F - 43.0 °F 86% 29.75 in 10.0 mi Calm Calm - 0.00 in Rain Light Rain
10:04 PM 46.4 °F 41.1 °F 42.8 °F 87% 29.75 in 4.0 mi WNW 11.5 mph 19.6 mph 0.03 in Rain Rain
10:09 PM 44.6 °F 39.2 °F 41.0 °F 87% 29.75 in 1.8 mi NW 10.4 mph 20.7 mph 0.12 in Rain Heavy Rain
10:13 PM 42.8 °F 39.3 °F 39.2 °F 87% 29.75 in 1.0 mi WNW 5.8 mph 20.7 mph 0.19 in Rain Heavy Rain
10:22 PM 42.8 °F 38.0 °F 39.2 °F 87% 29.74 in 2.0 mi SSW 8.1 mph - 0.22 in Rain Rain
10:30 PM 42.8 °F 38.6 °F 39.2 °F 87% 29.74 in 5.0 mi SSW 6.9 mph - 0.23 in Rain Rain
10:53 PM 43.0 °F 41.3 °F 39.9 °F 89% 29.73 in 5.0 mi WSW 3.5 mph - 0.25 in Rain Light Rain
11:53 PM 43.0 °F 39.5 °F 41.0 °F 93% 29.71 in 7.0 mi SSW 5.8 mph - 0.03 in Rain Light Rain